This demonstration page uses our WeatherBlox Daily Observations layout. Learn more.

38.88101, -77.10428

Hourly Observations for March 20, 2020

Temp ( °F °C ) Dew Point ( °F °C ) Humidity (%) Winds ( mph kmh ) Pressure ( in mb ) Visibility ( mi km ) Precip ( " mm )
12:52 am 00:52 Mostly Cloudy 59 15 56 13.3 90 90 Calm 30.11 1020 8 12.87472 0 0
1:52 am 01:52 Mostly Cloudy 58 14.4 56 13.3 93 93 NNE 3 6 30.08 1019 7 11.26538 0 0
2:52 am 02:52 Mostly Cloudy 59 15 57 13.9 93 93 Calm 30.06 1018 7 11.26538 0 0
3:52 am 03:52 Mostly Cloudy 59 15 56 13.3 90 90 Calm 30.04 1017 7 11.26538 0.001 0.001
4:52 am 04:52 Cloudy with Mist and Fog 58 14.4 56 13.3 93 93 S 3 6 30.03 1017 6 9.65604 0 0
5:52 am 05:52 Cloudy 61 16.1 58 14.4 90 90 S 6 9 30.01 1016 10 16.0934 0 0
6:52 am 06:52 Mostly Cloudy 63 17.2 59 15 87 87 S 9 15 30.01 1016 10 16.0934 0 0
7:52 am 07:52 Mostly Cloudy 67 19.4 60 15.6 79 79 SSW 12 19 30.01 1016 10 16.0934 0 0
8:52 am 08:52 Mostly Sunny 70 21.1 61 16.1 73 73 SSW 12 19 30.01 1016 10 16.0934 0 0
9:52 am 09:52 Mostly Cloudy 71 21.7 61 16.1 71 71 SSW 16 26 30.02 1017 10 16.0934 0 0
10:52 am 10:52 Mostly Sunny 73 22.8 62 16.7 69 69 SSW 17 28 30.01 1016 10 16.0934 0.001 0.001
10:54 am 10:54 Mostly Cloudy 73 22.8 62 16.7 69 69 SSW 15 24 30.01 1016 10 16.0934 0 0
11:52 am 11:52 Mostly Cloudy 69 20.6 60 15.6 73 73 S 14 22 29.97 1015 10 16.0934 0 0
12:52 pm 12:52 Cloudy with Light Rain 74 23.3 62 16.7 67 67 SW 13 20 29.99 1016 7 11.26538 0.01 0.254
1:52 pm 13:52 Mostly Cloudy 75 23.9 61 16.1 62 62 SW 20 31 29.94 1014 10 16.0934 0.01 0.254
2:52 pm 14:52 Mostly Cloudy 80 26.7 58 14.4 47 47 SW 17 28 29.9 1013 10 16.0934 0 0
3:52 pm 15:52 Mostly Cloudy 81 27.2 56 13.3 42 42 SW 25 41 29.88 1012 10 16.0934 0 0
4:52 pm 16:52 Mostly Cloudy 82 27.8 57 13.9 42 42 SW 23 37 29.88 1012 10 16.0934 0 0
5:52 pm 17:52 Cloudy 81 27.2 56 13.3 42 42 SW 24 39 29.9 1012 10 16.0934 0 0
6:52 pm 18:52 Cloudy 80 26.7 54 12.2 41 41 SW 18 30 29.91 1013 10 16.0934 0 0
7:52 pm 19:52 Mostly Cloudy 79 26.1 54 12.2 42 42 SW 14 22 29.93 1014 10 16.0934 0 0
8:52 pm 20:52 Cloudy 78 25.6 53 11.7 42 42 SW 14 22 29.94 1014 10 16.0934 0 0
9:52 pm 21:52 Cloudy 77 25 51 10.6 40 40 WSW 10 17 29.96 1015 10 16.0934 0 0
10:52 pm 22:52 Cloudy 74 23.3 52 11.1 46 46 NNW 8 13 29.98 1015 10 16.0934 0 0
11:52 pm 23:52 Cloudy 71 21.7 54 12.2 55 55 NNW 12 19 30.01 1016 10 16.0934 0 0

Powered by AerisWeather